Tracking 28790 objects as of 19-Apr-2024
HD Live streaming from Space Station
objects crossing your sky now

COSMOS 1825

Track COSMOS 1825 now!
10-day predictions
COSMOS 1825 is classified as:


NORAD ID: 17566
Int'l Code: 1987-024A
Perigee: 454.4 km
Apogee: 459.9 km
Inclination: 82.5 °
Period: 93.6 minutes
Semi major axis: 6828 km
RCS: 9.0123 m2 (large)
Launch date: March 3, 1987
Source: Commonwealth of Independent States (former USSR) (CIS)
Launch site: PLESETSK MISSILE AND SPACE COMPLEX (PKMTR)
Your satellite tracking list
Your tracking list is empty




NASA's NSSDC Master Catalog

Two Line Element Set (TLE):
1 17566U 87024A   24109.65525701  .00027248  00000-0  71070-3 0  9994
2 17566  82.4970 319.7327 0003991 102.1596 258.0096 15.38682769 33512
Source of the keplerian elements: AFSPC